Home > Weather > Swansea > Past weeks

Flag for United Kingdom Weather for the Past 2 Weeks in Swansea, Wales, United Kingdom

Now
40 °F

Quite cool.


Feels Like: 30 °F
Forecast: 38 / 41 °F
Wind: 28 mph from East

Location: Mumbles

Current Time: Feb 13, 2016 at 7:10:20 AM

Latest Report: Feb 13, 2016 at 6:00 AM


Visibility: N/A

Pressure: 29.00 "Hg

Humidity: 93%

Dew point: 39 °F

Location of SwanseaLocation

Historic Weather in Swansea — Graph

°F

Swansea Temperature Yesterday

Maximum temperature yesterday: 47 °F (at 1:00 PM)
Minimum temperature yesterday: 41 °F (at 3:00 AM)
Average temperature yesterday: 43 °F

High & Low Weather Summary for the Past Weeks

 TemperatureHumidityPressure
High53 °F (Jan 31, 12:00 PM)100% (Jan 29, 10:00 AM)30.37 "Hg (Jan 29, 10:00 AM)
Low36 °F (Feb 11, 4:00 AM)58% (Feb 2, 2:00 PM)28.91 "Hg (Feb 8, 7:00 AM)
Average46 °F86%29.66 "Hg
* Reported Jan 29 5:00 AM — Feb 13 5:00 AM, Swansea, Weather by CustomWeather, © 2016

Note: Actual official high and low records may vary slightly from our data, if they occured in-between our weather recording intervals... More about our weather records

Advertising

Swansea Weather History for the Previous 24 Hours

 ConditionsComfort  
Time TempWeatherWind HumidityBarometerVisibility
5:00 AM
Sat, Feb 13
41 °FQuite cool.26 mph93%29.03 "HgN/A
4:00 AM41 °FQuite cool.23 mph93%29.09 "HgN/A
12:00 AM42 °FQuite cool.29 mph89%29.26 "HgN/A
10:00 PM
Fri, Feb 12
43 °FQuite cool.23 mph88%29.32 "HgN/A
9:00 PM43 °FQuite cool.24 mph87%29.32 "HgN/A
8:00 PM44 °FQuite cool.21 mph84%29.35 "HgN/A
7:00 PM44 °FQuite cool.23 mph80%29.35 "HgN/A
6:00 PM45 °FCool.17 mph79%29.35 "HgN/A
5:00 PM45 °FCool.13 mph78%29.32 "HgN/A
4:00 PM46 °FCool.15 mph76%29.32 "HgN/A
3:00 PM46 °FCool.16 mph77%29.32 "HgN/A
2:00 PM45 °FCool.14 mph78%29.29 "HgN/A
1:00 PM47 °FCool.13 mph78%29.29 "HgN/A
12:00 PM45 °FCool.14 mph84%29.29 "HgN/A
11:00 AM43 °FQuite cool.18 mph89%29.29 "HgN/A
10:00 AM42 °FQuite cool.15 mph90%29.29 "HgN/A
9:00 AM42 °FQuite cool.17 mph92%29.29 "HgN/A
8:00 AM42 °FQuite cool.23 mph91%29.29 "HgN/A
7:00 AM42 °FQuite cool.20 mph91%29.26 "HgN/A
Weather by CustomWeather, © 2016

See weather overviewHow to use our weather pages